TimeMST,TemperatureF,Dew PointF,Humidity,Sea Level PressureIn,VisibilityMPH,Wind Direction,Wind SpeedMPH,Gust SpeedMPH,PrecipitationIn,Events,Conditions,WindDirDegrees,DateUTC
12:53 AM,-4.0,-14.1,62,30.60,10.0,NW,5.8,-,N/A,,Overcast,320,2013-01-21 07:53:00
1:53 AM,-2.9,-13.0,62,30.57,10.0,WNW,5.8,-,N/A,,Overcast,300,2013-01-21 08:53:00
2:53 AM,-2.9,-13.0,62,30.56,10.0,WNW,8.1,-,N/A,,Overcast,300,2013-01-21 09:53:00
3:53 AM,-2.9,-11.9,65,30.54,10.0,WNW,4.6,-,N/A,,Overcast,290,2013-01-21 10:53:00
4:53 AM,-2.0,-11.0,66,30.55,10.0,NW,6.9,-,N/A,,Overcast,310,2013-01-21 11:53:00
5:53 AM,-2.0,-11.0,66,30.53,10.0,WNW,5.8,-,N/A,,Overcast,290,2013-01-21 12:53:00
6:53 AM,-0.9,-11.0,62,30.51,10.0,Variable,3.5,-,N/A,,Overcast,0,2013-01-21 13:53:00
7:53 AM,-0.9,-11.0,62,30.50,10.0,Calm,Calm,-,N/A,,Overcast,0,2013-01-21 14:53:00
8:53 AM,-0.9,-9.9,66,30.50,10.0,Calm,Calm,-,N/A,,Overcast,0,2013-01-21 15:53:00
9:53 AM,-0.0,-9.0,66,30.50,10.0,East,3.5,-,N/A,,Overcast,100,2013-01-21 16:53:00
10:53 AM,1.9,-9.0,60,30.47,10.0,NNE,3.5,-,N/A,,Overcast,30,2013-01-21 17:53:00
11:53 AM,3.0,-7.1,63,30.44,10.0,Calm,Calm,-,N/A,,Overcast,0,2013-01-21 18:53:00
12:53 PM,5.0,-2.9,70,30.40,4.0,ESE,4.6,-,0.00,Snow,Light Snow,120,2013-01-21 19:53:00
1:21 PM,5.0,-2.2,72,30.21,2.0,East,5.8,-,0.00,Snow,Light Snow,100,2013-01-21 20:21:00
1:28 PM,5.0,-2.2,72,30.21,1.8,ESE,4.6,-,0.00,Snow,Light Snow,110,2013-01-21 20:28:00
1:37 PM,5.0,-2.2,72,30.20,2.5,East,4.6,-,0.00,Snow,Light Snow,80,2013-01-21 20:37:00
1:41 PM,5.0,-2.2,72,30.20,3.0,East,5.8,-,0.00,Snow,Light Snow,100,2013-01-21 20:41:00
1:53 PM,5.0,-2.0,73,30.38,3.0,East,5.8,-,0.00,Snow,Light Snow,90,2013-01-21 20:53:00
2:00 PM,5.0,-0.4,78,30.19,2.0,ESE,5.8,-,0.00,Snow,Light Snow,110,2013-01-21 21:00:00
2:05 PM,6.8,-0.4,72,30.19,1.8,East,5.8,-,0.00,Snow,Light Snow,100,2013-01-21 21:05:00
2:19 PM,6.8,-0.4,72,30.18,2.5,East,6.9,-,0.00,Snow,Light Snow,100,2013-01-21 21:19:00
2:26 PM,6.8,-0.4,72,30.18,3.0,ESE,6.9,-,0.00,Snow,Light Snow,110,2013-01-21 21:26:00
2:53 PM,6.1,-0.9,73,30.36,10.0,ESE,8.1,-,0.00,,Overcast,110,2013-01-21 21:53:00
3:34 PM,5.0,-0.4,78,30.16,1.8,ESE,9.2,-,0.00,Snow,Light Snow,110,2013-01-21 22:34:00
3:43 PM,6.8,-0.4,72,30.16,3.0,ESE,10.4,-,0.00,Snow,Light Snow,110,2013-01-21 22:43:00
3:53 PM,5.0,-0.0,80,30.35,9.0,ESE,9.2,-,0.00,,Overcast,110,2013-01-21 22:53:00
4:53 PM,5.0,-0.0,80,30.33,10.0,ESE,10.4,-,N/A,,Overcast,110,2013-01-21 23:53:00
5:53 PM,5.0,-0.4,78,30.14,2.5,East,10.4,-,N/A,Snow,Light Snow,100,2013-01-22 00:53:00
6:00 PM,5.0,-0.4,78,30.14,5.0,East,10.4,-,0.00,Snow,Light Snow,100,2013-01-22 01:00:00
6:53 PM,5.0,-0.0,80,30.32,10.0,East,11.5,-,0.00,,Overcast,100,2013-01-22 01:53:00
7:53 PM,5.0,-0.0,80,30.31,10.0,East,11.5,-,N/A,,Overcast,100,2013-01-22 02:53:00
8:53 PM,6.1,1.0,80,30.27,10.0,East,13.8,-,N/A,,Overcast,100,2013-01-22 03:53:00
9:53 PM,5.0,1.0,84,30.28,10.0,East,13.8,-,N/A,,Overcast,100,2013-01-22 04:53:00
10:53 PM,6.1,1.0,80,30.28,10.0,ESE,11.5,-,N/A,,Overcast,110,2013-01-22 05:53:00
11:53 PM,6.1,1.0,80,30.27,10.0,East,10.4,-,N/A,,Overcast,100,2013-01-22 06:53:00